HST 1 20580U 90037B 24263.56403763 .00009045 00000-0 40468-3 0 9998 2 20580 28.4680 72.0682 0002973 5.9088 354.1540 15.19534572691393 ISS (ZARYA) 1 25544U 98067A 24263.79940138 .00022843 00000-0 41611-3 0 9993 2 25544 51.6373 206.7434 0007421 10.2584 349.8555 15.49351530473220 CXO 1 25867U 99040B 24265.70620479 .00000929 00000-0 00000-0 0 9994 2 25867 43.2714 145.8678 8793999 301.6310 0.5853 0.37811701 14934